Swansboro, NC

6:35 PM EDT on June 28, 2017 (GMT -0400)
Bogue McAlf

Weather History for KNJM - April, 2013

Change the Weather History Date:

Thursday, April 25, 2013

  Actual Average (KNKT) Record (KNKT)
Temperature  
Mean Temperature 62 °F -  
Max Temperature 70 °F 71 °F 84 °F (2006)
Min Temperature 52 °F 50 °F 39 °F (2005)
Degree Days  
Heating Degree Days 4    
Growing Degree Days 12 (Base 50)    
Moisture  
Dew Point 55 °F    
Average Humidity 77    
Maximum Humidity 93    
Minimum Humidity 59    
Precipitation  
Precipitation 0.04 in - - ()
Sea Level Pressure  
Sea Level Pressure 30.20 in    
Wind  
Wind Speed 8 mph (NE)    
Max Wind Speed 14 mph    
Max Gust Speed 21 mph    
Visibility 9 miles    
Events Rain    
Averages and records for this station are not official NWS values.
T = Trace of Precipitation, MM = Missing Value Source: NWS Daily Summary

Daily Weather History Graph

Daily Weather History Graph

Search for Another Location

Airport or City:

Trip Planner

Search our weather history database for the weather conditions in past years. The results will help you decide how hot, cold, wet, or windy it might be!

Date:

Astronomy

Apr. 25, 2013 Rise Set
Actual Time 6:24 AM EDT 7:48 PM EDT
Civil Twilight 5:57 AM EDT 8:15 PM EDT
Nautical Twilight 5:25 AM EDT 8:46 PM EDT
Astronomical Twilight 4:52 AM EDT 9:20 PM EDT
Moon 7:57 PM EDT (4/25) 6:05 AM EDT (4/25)
Length of Visible Light 14h 17m
Length of Day
13h 24m
Full, 100% of the Moon is Illuminated
Apr 25
Full
Apr 25
Full
May 2
Last Quarter
May 9
New
May 18
First Quarter

Hourly Weather History & Observations

Time (EDT) Temp. Dew Point Humidity Pressure Visibility Wind Dir Wind Speed Gust Speed Precip Events Conditions
12:57 AM 64.9 °F 60.1 °F 84% 30.12 in 10.0 mi SW 9.2 mph - N/A   Clear
1:57 AM 64.0 °F 60.1 °F 87% 30.10 in 9.0 mi SW 8.1 mph - N/A   Clear
2:57 AM 64.0 °F 61.0 °F 90% 30.09 in 7.0 mi SW 6.9 mph - N/A   Clear
3:57 AM 63.0 °F 60.1 °F 90% 30.10 in 7.0 mi WSW 5.8 mph - N/A   Clear
4:57 AM 64.0 °F 61.0 °F 90% 30.12 in 7.0 mi WSW 6.9 mph - N/A   Mostly Cloudy
5:57 AM 63.0 °F 61.0 °F 93% 30.13 in 7.0 mi WSW 5.8 mph - N/A   Overcast
6:57 AM 63.0 °F 61.0 °F 93% 30.16 in 5.0 mi Variable 3.5 mph - N/A   Overcast
7:57 AM 63.0 °F 61.0 °F 93% 30.17 in 5.0 mi Calm Calm - N/A   Overcast
8:57 AM 66.0 °F 61.0 °F 84% 30.19 in 8.0 mi NW 3.5 mph - N/A   Mostly Cloudy
9:57 AM 68.0 °F 57.9 °F 70% 30.19 in 10.0 mi North 11.5 mph - N/A   Mostly Cloudy
10:57 AM 68.0 °F 55.0 °F 63% 30.19 in 10.0 mi NNE 11.5 mph - N/A   Overcast
11:57 AM 70.0 °F 55.0 °F 59% 30.20 in 10.0 mi NE 12.7 mph 17.3 mph N/A   Overcast
12:52 PM 66.2 °F 55.4 °F 68% 30.20 in 6.0 mi NE 11.5 mph 20.7 mph 0.02 in Rain Light Rain
12:57 PM 64.0 °F 55.0 °F 73% 30.22 in 3.0 mi NNE 10.4 mph - 0.04 in Rain Heavy Rain
1:49 PM 64.4 °F 59.0 °F 83% 30.20 in 10.0 mi East 10.4 mph - 0.00 in   Mostly Cloudy
1:57 PM 64.9 °F 57.0 °F 75% 30.21 in 10.0 mi ENE 11.5 mph - 0.00 in   Mostly Cloudy
2:57 PM 64.0 °F 54.0 °F 70% 30.22 in 10.0 mi East 13.8 mph - N/A   Mostly Cloudy
3:57 PM 64.9 °F 54.0 °F 68% 30.22 in 10.0 mi ESE 11.5 mph - N/A   Mostly Cloudy
4:57 PM 64.9 °F 52.0 °F 63% 30.22 in 10.0 mi NE 10.4 mph - N/A   Mostly Cloudy
5:57 PM 63.0 °F 50.0 °F 63% 30.24 in 10.0 mi NE 8.1 mph - N/A   Overcast
6:57 PM 59.0 °F 48.0 °F 67% 30.23 in 10.0 mi East 11.5 mph - N/A   Scattered Clouds
7:57 PM 57.9 °F 46.0 °F 65% 30.27 in 10.0 mi NE 8.1 mph 17.3 mph N/A   Overcast
8:57 PM 55.9 °F 46.0 °F 69% 30.28 in 10.0 mi NE 4.6 mph - N/A   Mostly Cloudy
9:57 PM 54.0 °F 46.0 °F 75% 30.29 in 10.0 mi ENE 4.6 mph - N/A   Clear
10:57 PM 53.1 °F 46.0 °F 77% 30.30 in 10.0 mi ENE 3.5 mph - N/A   Clear
11:57 PM 52.0 °F 45.0 °F 77% 30.30 in 10.0 mi NNE 6.9 mph - N/A   Clear